Regional Weather Roundup
Issued by NWS

Home | Current Version | Previous Version | Text Only | Print | Product List | Glossary On
Versions: 1 2 3 4 5 6 7 8 9 10 11 12 13 14 15 16 17 18 19 20 21 22 23 24 25 26 27 28 29 30 31 32 33 34 35 36 37 38 39 40 41 42 43 44 45 46 47 48 49 50
000
ASUS44 KLIX 282010
RWRLA
LOUISIANA WEATHER ROUNDUP
NATIONAL WEATHER SERVICE NEW ORLEANS LA
200 PM CST FRI NOV 28 2014

NOTE: "FAIR" INDICATES FEW OR NO CLOUDS BELOW 12,000 FEET WITH NO
      SIGNIFICANT WEATHER AND/OR OBSTRUCTIONS TO VISIBILITY.
      SKY/WX - SKY CONDITION AND SIGNIFICANT WEATHER.
      TMP - AIR TEMPERATURE.    DP   - DEWPOINT TEMPERATURE.
      RH  - RELATIVE HUMIDITY.  PRES - PRESSURE.
      HX  - HEAT INDEX.         WCI  - WIND CHILL INDEX.

*  THESE STATIONS ARE NOT NWS OR FAA STATIONS AND ARE NOT UNDER
   NWS QUALITY CONTROL.

LAZ040-048-061>063-065-066-069-282100-
SOUTHEAST LOUISIANA

CITY           SKY/WX    TMP DP  RH WIND       PRES   REMARKS
N.O. AUDUBON   NOT AVBL
N.O. INTL ARPT MOSUNNY   61  39  44 SE7       30.31F
N.O. LAKEFRONT SUNNY     57  41  55 E8        30.33F
N.O. DOWNTOWN* FAIR      57  39  51 E3        30.33F
SLIDELL        SUNNY     60  29  30 VRB5      30.32F
BATON ROUGE    SUNNY     61  32  33 SE6       30.30F
BOOTHVILLE     SUNNY     59  48  67 NE9       30.32F
BELLE CHASSE   SUNNY     60  38  43 SE8       30.32F
BOGALUSA*        N/A     62  25  25 CALM      30.33F
NEW ROADS*     FAIR      61  33  35 SE6       30.30F
GONZALES*      FAIR      61  33  35 SE6       30.31F
HAMMOND*       SUNNY     61  27  27 S7        30.34F
HOUMA*         SUNNY     64  43  45 NE5       30.31F
PORT FOURCHON* CLEAR     59  48  67 E8G14     30.34F

$$

LAZ041-044-053-054-282100-
SOUTHWEST LOUISIANA

CITY           SKY/WX    TMP DP  RH WIND       PRES   REMARKS
LAKE CHARLES   SUNNY     64  51  62 S9        30.26F
LAFAYETTE      SUNNY     63  38  39 S5        30.29F
PATTERSON      SUNNY     63  41  45 SE7       30.32F
SALT POINT       N/A     64  49  57 SE9       30.29F
NEW IBERIA     SUNNY     64  40  41 S10       30.30F
CHENAULT AIRPK SUNNY     64  48  55 SE9       30.27F

$$

LAZ027-028-282100-
CENTRAL LOUISIANA

CITY           SKY/WX    TMP DP  RH WIND       PRES   REMARKS
FORT POLK      SUNNY     63  44  50 S10       30.24F
ALEXANDRIA INT SUNNY     62  38  40 SE9       30.24F
ALEXANDRIA     SUNNY     62  35  36 S9        30.26F

$$

LAZ001-002-282100-
NORTHWEST LOUISIANA

CITY           SKY/WX    TMP DP  RH WIND       PRES   REMARKS
SHREVEPORT     SUNNY     65  39  38 S9        30.18F
BARKSDALE AFB  SUNNY     64  37  35 S9        30.19F
DTN SHREVEPORT SUNNY     63  37  38 S8        30.19F

$$

LAZ014-016-282100-
NORTHEAST LOUISIANA

CITY           SKY/WX    TMP DP  RH WIND       PRES   REMARKS
MONROE         SUNNY     61  32  33 S12       30.25F
TALLULAH       SUNNY     61  25  25 S10       30.27F

$$



USA.gov is the U.S. government's official web portal to all federal, state and local government web resources and services.